www.pogodaiklimat.ru

Погода и климат >> Архив погоды >> Парагвай >> Пуэрто-Касадо


ПОГОДА в Пуэрто-Касадо

  • Прогноз погоды в Пуэрто-Касадо
  • Монитор погоды в Пуэрто-Касадо

АРХИВ ПОГОДЫ в Пуэрто-Касадо

Время (UTC), дата Ветер
(напр.,м/с)
 
Видим.   Явления Облачность Т
(С)
Тd
(С)
f
(%)
Тe
(С)
Тes
(С)
Комфортность P
(гПа)
Po
(гПа)
Тmin
(С)
Tmax
(С)
R
(мм)
R24
(мм)
S
(см)
03 10.09 СВ 2 18 км мгла 4/0
[Ci]
+29.6 +19.4 54 +35 +35 очень
душно
1006.5 997.7
06 10.09 СВ 2 10 км мгла 5/0
[Ci]
+27.8 +18.8 58 +33 +33 очень
душно
1006.9 998.0
09 10.09 штиль 0 10 км мгла 5/0
[Ci]
+27.0 +17.3 55 +31 +31 душно 1007.5 998.6
12 10.09 С 3 10 км мгла 5/0
[Ci]
+28.4 +16.2 48 +32 +35 душно 1009.3 1000.4 +26.0
15 10.09 С 7 10 км мгла 5/0
[Ci]
+35.6 +15.8 31 +38 +42 очень
душно
1009.3 1000.6
18 10.09 С 7 10 км мгла 8/5 1000 м
[Cu hum Cs]
+37.4 +16.4 29 +40 +41 очень
душно
1007.4 998.8
21 10.09 С 4 10 км мгла 9/0 2000 м
[Ac und]
+35.8 +15.8 30 +38 +38 очень
душно
1006.7 998.1
00 11.09 ЮЗ 4 10 км мгла 8/0 2000 м
[Ac und]
+31.0 +20.4 53 +38 +38 очень
душно
1009.7 1000.9 +39.0
03 11.09 ЮЗ 4 10 км мгла 8/0 2000 м
[Ac und]
+29.2 +19.6 56 +35 +35 очень
душно
1010.2 1001.3
06 11.09 ЮЗ 2 10 км мгла 8/0 2000 м
[Ac und]
+27.8 +18.8 58 +33 +33 очень
душно
1010.7 1001.8
12 11.09 ЮЗ 2 10 км мгла 5/0
[Ci]
+22.6 +16.8 70 +27 +32 душно 1012.0 1002.9 +22.6
15 11.09 ЮЗ 2 10 км мгла 4/0
[Ci]
+26.8 +17.8 58 +31 +47 душно 1011.8 1002.9
18 11.09 З 2 10 км мгла 5/0
[Ci]
+32.0 +18.2 44 +37 +48 очень
душно
1009.7 1000.9
21 11.09 З 2 10 км мгла 5/0
[Ci]
+32.8 +19.6 46 +39 +39 очень
душно
1008.6 999.9
00 12.09 ЮЗ 3 10 км мгла 5/0
[Ci]
+27.8 +18.8 58 +33 +33 очень
душно
1010.4 1001.5 +34.6
03 12.09 ЮЗ 3 10 км мгла 5/0
[Ci]
+26.6 +16.0 52 +30 +30 душно 1011.1 1002.2
06 12.09 ЮЗ 4 10 км мгла 5/0
[Ci]
+24.8 +17.1 62 +29 +29 душно 1011.9 1002.9
09 12.09 ЮЗ 4 10 км мгла 5/0
[Ci]
+22.0 +17.1 74 +26 +26 душно 1012.5 1003.4
12 12.09 Ю 5 10 км мгла 10/10 450 м
[Sc]
+18.6 +14.1 75 +19 +19 1017.6 1008.4 +18.6
15 12.09 Ю 4 10 км мгла 10/10 600 м
[Sc]
+18.6 +15.8 84 +19 +19 1020.8 1011.6
18 12.09 ЮЗ 5 10 км мгла 10/10 600 м
[Sc]
+17.6 +15.1 85 +17 +17 1019.9 1010.6
21 12.09 Ю 2 10 км мгла 10/10 600 м
[Sc]
+19.6 +15.2 76 +22 +22 комфорт 1020.3 1011.1
00 13.09 штиль 0 10 км мгла 5/0
[Ac trans]
+18.0 +14.7 81 +18 +18 1020.0 1010.7 +27.8
03 13.09 штиль 0 10 км мгла 5/0
[Ac trans]
+17.0 +15.1 89 +17 +17 1020.4 1011.1
09 13.09 ЮЗ 3 10 км мгла 6/0
[Ac und]
+14.0 +12.0 88 +13 +13 1018.9 1009.5
12 13.09 Ю 2 10 км мгла 6/0
[Ac und]
+18.0 +14.4 79 +19 +21 1019.8 1010.5 +16.0
15 13.09 Ю 3 10 км мгла 1/0
[Ci]
+23.6 +14.2 56 +26 +40 жарко 1018.4 1009.3
18 13.09 В 2 10 км мгла 1/0
[Ci]
+27.4 +15.1 47 +30 +43 жарко 1016.1 1007.1
21 13.09 штиль 0 10 км мгла 1/0
[Ci]
+28.0 +15.1 45 +31 +32 душно 1013.9 1005.0
00 14.09 штиль 0 10 км мгла ясно +23.0 +16.2 66 +28 +28 душно 1014.9 1005.8 +29.6
03 14.09 штиль 0 10 км мгла ясно +21.8 +15.4 67 +25 +25 комфорт 1015.3 1006.2
06 14.09 штиль 0 10 км мгла ясно +20.8 +14.9 69 +23 +23 комфорт 1016.0 1006.8
09 14.09 штиль 0 10 км мгла 4/0
[Ac trans]
+20.0 +15.2 74 +22 +22 комфорт 1016.3 1007.1
12 14.09 штиль 0 10 км мгла ясно +21.4 +16.0 71 +25 +32 комфорт 1014.0 1004.9 +17.0
18 14.09 СЗ 4 10 км мгла 1/1 1000 м
[Cu hum]
+36.0 +19.4 38 +41 +49 опасность
перегрева
1010.2 1001.5
21 14.09 СЗ 3 10 км мгла 4/0
[Ci]
+36.6 +17.2 32 +40 +40 очень
душно
1007.2 998.5
00 15.09 штиль 0 10 км мгла ясно +30.8 +20.5 54 +38 +38 очень
душно
1007.7 998.9 +39.0
06 15.09 штиль 0 10 км мгла ясно +27.8 +20.4 64 +34 +34 очень
душно
1008.8 999.9
09 15.09 штиль 0 10 км мгла ясно +26.0 +19.6 68 +32 +32 очень
душно
1009.3 1000.3
12 15.09 штиль 0 10 км мгла ясно +26.4 +17.7 59 +31 +38 душно 1008.4 999.5 +17.5
15 15.09 С 3 10 км мгла ясно +35.0 +15.3 31 +37 +53 опасность
солнечного
удара
1009.1 1000.4
18 15.09 С 4 10 км мгла ясно +39.6 +17.0 27 +42 +51 опасность
перегрева
1006.7 998.1
21 15.09 С 3 10 км мгла ясно +39.0 +17.6 29 +42 +43 опасность
перегрева
1004.7 996.1
00 16.09 штиль 0 10 км мгла ясно +35.0 +13.8 28 +36 +36 очень
жарко
1005.9 997.2 +41.0
03 16.09 штиль 0 10 км мгла ясно +33.0 +10.6 25 +32 +32 жарко 1005.0 996.2
06 16.09 штиль 0 10 км мгла ясно +30.0 +15.4 41 +33 +33 душно 1006.1 997.3
09 16.09 С 1 10 км мгла ясно +28.8 +14.2 41 +31 +31 жарко 1007.3 998.4
12 16.09 С 1 10 км мгла ясно +28.0 +16.8 51 +32 +38 душно 1008.0 999.1 +26.4
15 16.09 С 2 10 км мгла ясно +35.8 +17.6 34 +39 +58 опасность
солнечного
удара
1007.0 998.3
18 16.09 С 3 10 км мгла ясно +40.4 +16.7 25 +42 +53 опасность
перегрева
1005.8 997.2
21 16.09 С 1 10 км мгла ясно +39.8 +14.8 23 +41 +42 опасность
перегрева
1005.7 997.1
00 17.09 штиль 0 10 км мгла ясно +34.0 +18.1 39 +38 +38 очень
душно
1006.5 997.6 +41.0

 

Местоположение метеостанции Пуэрто-Касадо (Парагвай): широта -22.28 долгота -57.86 высота над уровнем моря 87 м.

В архиве по умолчанию представлена погода в Пуэрто-Касадо за последнюю неделю. Архивные данные за месяц целиком и за предыдущие месяцы, начиная с января 2011 года, Вы можете получить, выбрав интересующий диапазон дат из раскрывающегося списка и нажав кнопку "Ввод!".


*Определитесь, кто Вы:
робот инопланетянин человек

Внимание! Время в таблицах - всемирное. Для получения местного времени необходимо прибавить поправку, которая равна -4 ч.

Смотрите также архив погоды в соседних городах и на ближайших метеорологических станциях:

Погода в Порто Муртиньо (Мату-Гросу-ду-Сул, Бразилия) (72 км)
Погода в Бела-Виста (Мату-Гросу-ду-Сул, Бразилия) (137 км)
Погода в Консепсьоне (Парагвай) (138 км)
Погода в Посо Колорадо (Парагвай) (162 км)
Погода в Жардиме (Мату-Гросу-ду-Сул, Бразилия) (199 км)
Погода в Сан-Педро (Парагвай) (213 км)
Погода в Педро-Хуан-Кабальеро (Парагвай) (222 км)
Погода в Понта-Пора (Мату-Гросу-ду-Сул, Бразилия) (224 км)
Погода в Понта-Поране (Мату-Гросу-ду-Сул, Бразилия) (241 км)
Погода в Миранде (Мату-Гросу-ду-Сул, Бразилия) (256 км)

Пояснения к столбцам:

Ветер - указаны скорость ветра в м/с - средняя за 10 мин, порывы в срок и между сроками (в фигурных скобках) и направление, откуда дует ветер: С - северный, СВ - северо-восточный, В - восточный, ЮВ - юго-восточный, Ю - южный, ЮЗ - юго-западный, З - западный, СЗ - северо-западный.
Видимость - горизонтальная дальность видимости в метрах или километрах. При видимости от 1 до 10 км при отсутствии осадков обычно наблюдается дымка, при ухудшении видимости до 1 км и менее - туман. В сухую погоду видимость может ухудшаться дымом, пылью или мглою.
Явления - указаны атмосферные явления, наблюдавшиеся в срок или в последний час перед сроком; фигурными скобками обозначены явления, наблюдавшиеся между сроками (за 1-3 часа до срока); квадратными скобками обозначены град или гололедные отложения с указанием их диаметра в мм.
Облачность - указаны через наклонную черту общая и нижняя облачность в баллах и высота нижней границы облаков в метрах; квадратными скобками обозначены формы облаков: Ci - перистые, Cs - перисто-слоистые, Cc - перисто-кучевые, Ac - высококучевые, As - высокослоистые, Sc - слоисто-кучевые, Ns - слоисто-дождевые, Cu - кучевые, Cb - кучево-дождевые. Подробнее классификацию облаков см. в Атласе облаков (PDF).
T - Температура воздуха - температура, измеренная на высоте 2 м над землей.
Td - Температура точки росы - температура, при понижении до которой содержащийся в воздухе водяной пар достигнет насыщения.
f - Относительная влажность воздуха - влажноcть воздуха, измеренная на высоте 2 м над землей.
Te - Эффективная температура - температура, которую ощущает одетый по сезону человек в тени. Характеристика душности погоды. При расчете учитывается влияние влажности воздуха и скорости ветра на теплоощущения человека.
Tes - Эффективная температура на солнце - температура, которую ощущает человек, с поправкой на солнечный нагрев. Характеристика знойности погоды. Зависит от высоты солнца над горизонтом, облачности и скорости ветра. Ночью, в пасмурную погоду, а также при ветре 12 м/с и более поправка равна нулю.
P - Атмосферное давление - приведенное к уровню моря атмосферное давление.
Po - Атмосферное давление - измеренное на уровне метеостанции атмосферное давление.
Tmin - Минимальная температура - минимум температуры воздуха на высоте 2 м над землей.
Tmax - Максимальная температура - максимум температуры воздуха на высоте 2 м над землей.
R - Количество осадков - Количество выпавших осадков за период времени, мм. При наведении курсора мыши на число - период времени, за который выпало указанное количество осадков.
R24 - Количество осадков - Количество выпавших осадков за 24 часа, мм.
S - Снежный покров - Высота снежного покрова, см. При наведении курсора мыши на число - состояние снежного покрова и степень покрытия местности в баллах.